Simultaneous Nadir Overpasses (SNOs) Predictions

Prediction of SNOs between AQUA and METOP-A Satellite Orbit:

Table of predicted SNOs for the next 14.0 days since TLE Epoch: 7/13/2018
Index Date (AQUA) Time (AQUA) Lat,Lon (AQUA) SZA (AQUA ) Date (METOP-A) Time (METOP-A) Lat,Lon (METOP-A) SZA (METOP-A ) Distance(km) Time Diff (sec)
1 07/16/2018 11:18:06 74.39, 3.58 53.17 07/16/2018 11:17:00 74.39, 3.47 53.19 3.32 66
2 07/16/2018 12:07:34 -74.47, 171.03 126.74 07/16/2018 12:07:40 -74.47, 171.01 126.74 0.84 6
3 07/16/2018 12:57:04 74.63, -21.73 53.45 07/16/2018 12:58:16 74.66, -21.17 53.44 16.82 72
4 07/19/2018 06:52:28 74.44, 69.86 53.72 07/19/2018 06:51:16 74.43, 69.98 53.72 3.83 72
5 07/19/2018 07:41:55 -74.47,-122.56 126.25 07/19/2018 07:41:57 -74.46,-122.60 126.25 1.21 2
6 07/19/2018 08:31:23 74.53, 44.92 53.83 07/19/2018 08:32:35 74.55, 44.95 53.84 1.90 72
7 07/22/2018 02:26:47 74.40, 136.38 54.21 07/22/2018 02:25:34 74.32, 136.10 54.16 12.13 73
8 07/22/2018 03:16:15 -74.47, -56.16 125.71 07/22/2018 03:16:13 -74.46, -56.21 125.72 2.17 2
9 07/22/2018 04:05:43 74.54, 111.31 54.38 07/22/2018 04:06:51 74.54, 111.32 54.36 0.67 68
10 07/24/2018 22:01:05 74.25,-156.87 54.63 07/24/2018 21:59:54 74.16,-157.89 54.60 32.93 71
11 07/24/2018 22:50:36 -74.48, 10.23 125.12 07/24/2018 22:50:29 -74.50, 10.30 125.10 2.81 7
12 07/24/2018 23:40:04 74.55, 177.70 54.97 07/24/2018 23:41:08 74.52, 177.70 54.93 3.24 64
13 07/27/2018 17:35:22 74.06, -90.01 55.04 07/27/2018 17:34:13 74.04, -91.77 55.12 53.82 69
14 07/27/2018 18:24:57 -74.49, 76.61 124.48 07/27/2018 18:24:46 -74.49, 76.68 124.49 2.14 11
15 07/27/2018 19:14:25 74.56,-115.92 55.61 07/27/2018 19:15:24 74.55,-115.81 55.58 3.44 59




NCC Satellite Simultaneous Nadir Overpasses (SNOs) Prediction Service
